Hourly Data Report for June 12, 2021

SARNIA
ONTARIO
Current Station Operator: NAVCAN

42°59'58.000" N
82°18'32.000" W
181.40 m
6127510
71704
YZR

Download Data

Hourly Data (June 2021)
Hourly Data Report for June 12, 2021
TIME
LST
Temp Definition
°C
Dew Point Definition
°C
Rel Hum Definition
%
Precip. Amount Definition
mm

Wind Dir Definition
10's deg

Wind Spd Definition
km/h
Visibility Definition
km
Stn Press Definition
kPa
Hmdx Definition


Wind Chill Definition


Weather Definition


00:00 17.6 16.8 95 0.0 LegendMM 4 16.1 98.98     LegendNANA
01:00 17.3 16.7 96 0.0 32 8 16.1 98.95     LegendNANA
02:00 17.2 16.5 96 0.0 31 4 16.1 98.91     LegendNANA
03:00 16.7 16.2 97 0.0   0 16.1 98.93     LegendNANA
04:00 16.6 16.0 96 0.0 LegendMM 4 12.9 98.93     LegendNANA
05:00 16.6 16.1 97 0.0   0 12.9 98.97     LegendNANA
06:00 17.0 16.2 95 0.0   0 12.9 99.03     LegendNANA
07:00 18.9 14.4 75 0.0 12 5 16.1 99.09     LegendNANA
08:00 20.3 14.6 70 0.0 13 8 16.1 99.10     LegendNANA
09:00 21.9 14.7 63 0.0 19 5 16.1 99.12 26   LegendNANA
10:00 23.9 15.5 59 0.0 19 11 16.1 99.01 28   LegendNANA
11:00 25.3 16.6 58 0.0 20 11 16.1 99.00 30   LegendNANA
12:00 24.2 17.2 64 0.0 3 13 16.1 99.01 30   LegendNANA
13:00 23.7 17.3 67 0.0 2 17 16.1 99.01 29   LegendNANA
14:00 26.8 17.9 58 0.0 5 9 16.1 98.96 33   LegendNANA
15:00 27.6 17.8 55 0.0 3 17 16.1 98.90 33   LegendNANA
16:00 27.8 18.0 55 0.0 3 15 16.1 98.88 34   LegendNANA
17:00 27.4 17.9 56 0.0 4 5 16.1 98.84 33   LegendNANA
18:00 25.6 17.9 62 0.0 3 8 16.1 98.82 32   LegendNANA
19:00 23.8 17.2 66 0.0 34 11 16.1 98.82 29   LegendNANA
20:00 20.6 17.3 81 0.0 33 9 16.1 98.86 26   LegendNANA
21:00 19.5 17.3 87 0.0 34 11 16.1 98.90     LegendNANA
22:00 19.4 17.5 89 0.0 LegendMM 4 16.1 98.99     Rain
23:00 19.6 17.8 89 0.0 26 4 16.1 98.94     LegendNANA

Notes on Data Quality.

Legend

  • E = Estimated
  • M = Missing
  • NA = Not Available*
  • [empty] = Indicates an unobserved value
Date modified: